Time,TemperatureF,DewpointF,PressureIn,WindDirection,WindDirectionDegrees,WindSpeedMPH,WindSpeedGustMPH,Humidity,HourlyPrecipIn,Conditions,Clouds,dailyrainin,SolarRadiationWatts/m^2,SoftwareType,DateUTC
2013-09-04 00:02:00,54.0,50.0,-100.00,NE,34,2.0,10.0,87,0.00,,,0.04,0.000000,,2013-09-04 07:02:00,
2013-09-04 00:11:00,54.0,50.0,-100.00,NE,34,2.0,10.0,87,0.00,,,0.04,0.000000,,2013-09-04 07:11:00,
2013-09-04 00:42:00,55.0,51.0,-100.00,NE,39,1.0,5.0,87,0.00,,,0.04,0.000000,,2013-09-04 07:42:00,
2013-09-04 00:52:00,55.0,51.0,-100.00,NE,39,1.0,5.0,87,0.00,,,0.04,0.000000,,2013-09-04 07:52:00,
2013-09-04 01:02:00,55.0,51.0,-100.00,NE,39,1.0,5.0,87,0.00,,,0.04,0.000000,,2013-09-04 08:02:00,
2013-09-04 01:12:00,55.0,51.0,-100.00,NE,39,1.0,5.0,87,0.00,,,0.04,0.000000,,2013-09-04 08:12:00,
2013-09-04 01:43:00,53.0,51.0,-100.00,NW,321,0.0,2.0,92,0.00,,,0.04,0.000000,,2013-09-04 08:43:00,
2013-09-04 01:52:00,53.0,51.0,-100.00,NW,321,0.0,2.0,92,0.00,,,0.04,0.000000,,2013-09-04 08:52:00,
2013-09-04 02:01:00,53.0,51.0,-100.00,NW,321,0.0,2.0,92,0.00,,,0.04,0.000000,,2013-09-04 09:01:00,
2013-09-04 02:11:00,53.0,51.0,-100.00,NW,321,0.0,2.0,92,0.00,,,0.04,0.000000,,2013-09-04 09:11:00,
2013-09-04 02:43:00,51.0,50.0,-100.00,NNE,22,1.0,3.0,96,0.00,,,0.04,0.000000,,2013-09-04 09:43:00,
2013-09-04 02:53:00,51.0,50.0,-100.00,NNE,22,1.0,3.0,96,0.00,,,0.04,0.000000,,2013-09-04 09:53:00,
2013-09-04 03:03:00,51.0,50.0,-100.00,NNE,22,1.0,3.0,96,0.00,,,0.04,0.000000,,2013-09-04 10:03:00,
2013-09-04 03:12:00,51.0,50.0,-100.00,NNE,22,1.0,3.0,96,0.00,,,0.04,0.000000,,2013-09-04 10:12:00,
2013-09-04 03:42:00,52.0,51.0,-100.00,NE,47,0.0,3.0,98,0.00,,,0.01,0.000000,,2013-09-04 10:42:00,
2013-09-04 03:52:00,52.0,51.0,-100.00,NE,47,0.0,3.0,98,0.00,,,0.01,0.000000,,2013-09-04 10:52:00,
2013-09-04 04:02:00,52.0,51.0,-100.00,NE,47,0.0,3.0,98,0.00,,,0.01,0.000000,,2013-09-04 11:02:00,
2013-09-04 04:12:00,52.0,51.0,-100.00,NE,47,0.0,3.0,98,0.00,,,0.01,0.000000,,2013-09-04 11:12:00,
2013-09-04 04:42:00,52.0,52.0,-100.00,NE,50,0.0,2.0,100,0.00,,,0.01,0.000000,,2013-09-04 11:42:00,
2013-09-04 04:52:00,52.0,52.0,-100.00,NE,50,0.0,2.0,100,0.00,,,0.01,0.000000,,2013-09-04 11:52:00,
2013-09-04 05:01:00,52.0,52.0,-100.00,NE,50,0.0,2.0,100,0.00,,,0.01,0.000000,,2013-09-04 12:01:00,
2013-09-04 05:11:00,52.0,52.0,-100.00,NE,50,0.0,2.0,100,0.00,,,0.01,0.000000,,2013-09-04 12:11:00,
2013-09-04 05:42:00,51.0,51.0,-100.00,North,8,1.0,3.0,100,0.00,,,0.01,0.000000,,2013-09-04 12:42:00,
2013-09-04 05:52:00,51.0,51.0,-100.00,North,8,1.0,3.0,100,0.00,,,0.01,0.000000,,2013-09-04 12:52:00,
2013-09-04 06:01:00,51.0,51.0,-100.00,North,8,1.0,3.0,100,0.00,,,0.01,0.000000,,2013-09-04 13:01:00,
2013-09-04 06:11:00,51.0,51.0,-100.00,North,8,1.0,3.0,100,0.00,,,0.01,0.000000,,2013-09-04 13:11:00,
2013-09-04 06:42:00,50.0,50.0,-100.00,South,189,0.0,2.0,100,0.00,,,0.00,0.000000,,2013-09-04 13:42:00,
2013-09-04 06:52:00,50.0,50.0,-100.00,South,189,0.0,2.0,100,0.00,,,0.00,0.000000,,2013-09-04 13:52:00,
2013-09-04 07:01:00,50.0,50.0,-100.00,South,189,0.0,2.0,100,0.00,,,0.00,0.000000,,2013-09-04 14:01:00,
2013-09-04 07:11:00,50.0,50.0,-100.00,South,189,0.0,2.0,100,0.00,,,0.00,0.000000,,2013-09-04 14:11:00,
2013-09-04 07:42:00,51.0,51.0,-100.00,South,176,0.0,2.0,100,0.00,,,0.00,0.000000,,2013-09-04 14:42:00,
2013-09-04 07:52:00,51.0,51.0,-100.00,South,176,0.0,2.0,100,0.00,,,0.00,0.000000,,2013-09-04 14:52:00,
2013-09-04 08:02:00,51.0,51.0,-100.00,South,176,0.0,2.0,100,0.00,,,0.00,0.000000,,2013-09-04 15:02:00,
2013-09-04 08:12:00,51.0,51.0,-100.00,South,176,0.0,2.0,100,0.00,,,0.00,0.000000,,2013-09-04 15:12:00,
2013-09-04 08:43:00,54.0,54.0,-100.00,North,0,0.0,3.0,100,0.00,,,0.00,31.000000,,2013-09-04 15:43:00,
2013-09-04 08:53:00,54.0,54.0,-100.00,North,0,0.0,3.0,100,0.00,,,0.00,31.000000,,2013-09-04 15:53:00,
2013-09-04 09:04:00,54.0,54.0,-100.00,North,0,0.0,3.0,100,0.00,,,0.00,31.000000,,2013-09-04 16:04:00,
2013-09-04 09:12:00,54.0,54.0,-100.00,North,0,0.0,3.0,100,0.00,,,0.00,31.000000,,2013-09-04 16:12:00,
2013-09-04 09:43:00,62.0,56.0,-100.00,South,189,0.0,3.0,81,0.00,,,0.00,170.000000,,2013-09-04 16:43:00,
2013-09-04 09:53:00,62.0,56.0,-100.00,South,189,0.0,3.0,81,0.00,,,0.00,170.000000,,2013-09-04 16:53:00,
2013-09-04 10:03:00,62.0,56.0,-100.00,South,189,0.0,3.0,81,0.00,,,0.00,170.000000,,2013-09-04 17:03:00,
2013-09-04 10:13:00,62.0,56.0,-100.00,South,189,0.0,3.0,81,0.00,,,0.00,170.000000,,2013-09-04 17:13:00,
2013-09-04 10:42:00,62.0,54.0,-100.00,SSW,202,2.0,5.0,74,0.00,,,0.00,509.000000,,2013-09-04 17:42:00,
2013-09-04 10:53:00,62.0,54.0,-100.00,SSW,202,2.0,5.0,74,0.00,,,0.00,509.000000,,2013-09-04 17:53:00,
2013-09-04 11:02:00,62.0,54.0,-100.00,SSW,202,2.0,5.0,74,0.00,,,0.00,509.000000,,2013-09-04 18:02:00,
2013-09-04 11:12:00,62.0,54.0,-100.00,SSW,202,2.0,5.0,74,0.00,,,0.00,509.000000,,2013-09-04 18:12:00,
2013-09-04 11:42:00,63.0,56.0,-100.00,WNW,297,1.0,6.0,78,0.00,,,0.00,340.000000,,2013-09-04 18:42:00,
2013-09-04 11:52:00,63.0,56.0,-100.00,WNW,297,1.0,6.0,78,0.00,,,0.00,340.000000,,2013-09-04 18:52:00,
2013-09-04 12:02:00,63.0,56.0,-100.00,WNW,297,1.0,6.0,78,0.00,,,0.00,340.000000,,2013-09-04 19:02:00,
2013-09-04 12:11:00,63.0,56.0,-100.00,WNW,297,1.0,6.0,78,0.00,,,0.00,340.000000,,2013-09-04 19:11:00,
2013-09-04 12:42:00,62.0,55.0,-100.00,ENE,67,1.0,4.0,77,0.00,,,0.00,296.000000,,2013-09-04 19:42:00,
2013-09-04 12:52:00,62.0,55.0,-100.00,ENE,67,1.0,4.0,77,0.00,,,0.00,296.000000,,2013-09-04 19:52:00,
2013-09-04 13:02:00,62.0,55.0,-100.00,ENE,67,1.0,4.0,77,0.00,,,0.00,296.000000,,2013-09-04 20:02:00,
2013-09-04 13:11:00,62.0,55.0,-100.00,ENE,67,1.0,4.0,77,0.00,,,0.00,296.000000,,2013-09-04 20:11:00,
2013-09-04 13:43:00,63.0,54.0,-100.00,East,98,2.0,7.0,73,0.00,,,-99.99,344.000000,,2013-09-04 20:43:00,
2013-09-04 13:53:00,63.0,54.0,-100.00,East,98,2.0,7.0,73,0.00,,,-99.99,344.000000,,2013-09-04 20:53:00,
2013-09-04 14:01:00,63.0,54.0,-100.00,East,98,2.0,7.0,73,0.00,,,-99.99,344.000000,,2013-09-04 21:01:00,
2013-09-04 14:11:00,63.0,54.0,-100.00,East,98,2.0,7.0,73,0.00,,,-99.99,344.000000,,2013-09-04 21:11:00,
2013-09-04 14:44:00,62.0,54.0,-100.00,North,354,1.0,5.0,75,0.00,,,0.00,390.000000,,2013-09-04 21:44:00,
2013-09-04 14:54:00,62.0,54.0,-100.00,North,354,1.0,5.0,75,0.00,,,0.00,390.000000,,2013-09-04 21:54:00,
2013-09-04 15:04:00,62.0,54.0,-100.00,North,354,1.0,5.0,75,0.00,,,0.00,390.000000,,2013-09-04 22:04:00,
2013-09-04 15:14:00,62.0,54.0,-100.00,North,354,1.0,5.0,75,0.00,,,0.00,390.000000,,2013-09-04 22:14:00,
2013-09-04 15:43:00,62.0,56.0,-100.00,SE,137,1.0,4.0,80,0.00,,,0.00,185.000000,,2013-09-04 22:43:00,
2013-09-04 15:54:00,62.0,56.0,-100.00,SE,137,1.0,4.0,80,0.00,,,0.00,185.000000,,2013-09-04 22:54:00,
2013-09-04 16:03:00,62.0,56.0,-100.00,SE,137,1.0,4.0,80,0.00,,,0.00,185.000000,,2013-09-04 23:03:00,
2013-09-04 16:13:00,62.0,56.0,-100.00,SE,137,1.0,4.0,80,0.00,,,0.00,185.000000,,2013-09-04 23:13:00,
2013-09-04 16:42:00,61.0,55.0,-100.00,North,2,1.0,3.0,80,0.00,,,0.00,118.000000,,2013-09-04 23:42:00,
2013-09-04 16:52:00,61.0,55.0,-100.00,North,2,1.0,3.0,80,0.00,,,0.00,118.000000,,2013-09-04 23:52:00,
2013-09-04 17:01:00,61.0,55.0,-100.00,North,2,1.0,3.0,80,0.00,,,0.00,118.000000,,2013-09-05 00:01:00,
2013-09-04 17:11:00,61.0,55.0,-100.00,North,2,1.0,3.0,80,0.00,,,0.00,118.000000,,2013-09-05 00:11:00,
2013-09-04 17:43:00,61.0,56.0,-100.00,East,100,0.0,4.0,84,0.00,,,0.00,157.000000,,2013-09-05 00:43:00,
2013-09-04 17:52:00,61.0,56.0,-100.00,East,100,0.0,4.0,84,0.00,,,0.00,157.000000,,2013-09-05 00:52:00,
2013-09-04 18:01:00,61.0,56.0,-100.00,East,100,0.0,4.0,84,0.00,,,0.00,157.000000,,2013-09-05 01:01:00,
2013-09-04 18:11:00,61.0,56.0,-100.00,East,100,0.0,4.0,84,0.00,,,0.00,157.000000,,2013-09-05 01:11:00,
2013-09-04 18:42:00,59.0,54.0,-100.00,NW,319,3.0,6.0,85,0.00,,,0.00,71.000000,,2013-09-05 01:42:00,
2013-09-04 18:52:00,59.0,54.0,-100.00,NW,319,3.0,6.0,85,0.00,,,0.00,71.000000,,2013-09-05 01:52:00,
2013-09-04 19:02:00,59.0,54.0,-100.00,NW,319,3.0,6.0,85,0.00,,,0.00,71.000000,,2013-09-05 02:02:00,
2013-09-04 19:11:00,59.0,54.0,-100.00,NW,319,3.0,6.0,85,0.00,,,0.00,71.000000,,2013-09-05 02:11:00,
2013-09-04 19:52:00,58.0,54.0,-100.00,WNW,292,3.0,9.0,86,0.00,,,0.00,37.000000,,2013-09-05 02:52:00,
2013-09-04 20:02:00,58.0,54.0,-100.00,WNW,292,3.0,9.0,86,0.00,,,0.00,37.000000,,2013-09-05 03:02:00,
2013-09-04 20:11:00,58.0,54.0,-100.00,WNW,292,3.0,9.0,86,0.00,,,0.00,37.000000,,2013-09-05 03:11:00,
2013-09-04 20:45:00,58.0,53.0,-100.00,East,101,1.0,5.0,84,0.00,,,0.00,23.000000,,2013-09-05 03:45:00,
2013-09-04 20:54:00,58.0,53.0,-100.00,East,101,1.0,5.0,84,0.00,,,0.00,23.000000,,2013-09-05 03:54:00,
2013-09-04 21:04:00,58.0,53.0,-100.00,East,101,1.0,5.0,84,0.00,,,0.00,23.000000,,2013-09-05 04:04:00,
2013-09-04 21:13:00,58.0,53.0,-100.00,East,101,1.0,5.0,84,0.00,,,0.00,23.000000,,2013-09-05 04:13:00,
2013-09-04 21:44:00,55.0,52.0,-100.00,NNE,19,0.0,4.0,90,0.00,,,0.00,1.000000,,2013-09-05 04:44:00,
2013-09-04 21:53:00,55.0,52.0,-100.00,NNE,19,0.0,4.0,90,0.00,,,0.00,1.000000,,2013-09-05 04:53:00,
2013-09-04 22:03:00,55.0,52.0,-100.00,NNE,19,0.0,4.0,90,0.00,,,0.00,1.000000,,2013-09-05 05:03:00,
2013-09-04 22:12:00,55.0,52.0,-100.00,NNE,19,0.0,4.0,90,0.00,,,0.00,1.000000,,2013-09-05 05:12:00,
2013-09-04 22:43:00,55.0,52.0,-100.00,North,354,1.0,5.0,88,0.00,,,0.00,0.000000,,2013-09-05 05:43:00,
2013-09-04 22:52:00,55.0,52.0,-100.00,North,354,1.0,5.0,88,0.00,,,0.00,0.000000,,2013-09-05 05:52:00,
2013-09-04 23:02:00,55.0,52.0,-100.00,North,354,1.0,5.0,88,0.00,,,0.00,0.000000,,2013-09-05 06:02:00,
2013-09-04 23:12:00,55.0,52.0,-100.00,North,354,1.0,5.0,88,0.00,,,0.00,0.000000,,2013-09-05 06:12:00,
2013-09-04 23:42:00,55.0,52.0,-100.00,North,359,1.0,4.0,89,0.00,,,0.00,0.000000,,2013-09-05 06:42:00,
2013-09-04 23:52:00,55.0,52.0,-100.00,North,359,1.0,4.0,89,0.00,,,0.00,0.000000,,2013-09-05 06:52:00,